Location: Eaton Estates
(41.3089°N, 82.0057°W)
Time: 16:51:49
(UTC+00:00)

Cosmos 1812 - Pass Details

Date: 17 June 2021
Orbit: 516 x 519 km, 82.5° (Epoch: 01 August)

Event Time Altitude Azimuth Distance (km) Brightness Sun altitude
Rises 09:08:37 0° 348° (NNW) 2,645 6.7 -7.7°
Reaches altitude 10° 09:10:46 10° 345° (NNW) 1,752 5.7 -7.4°
Maximum altitude 09:14:33 60° 265° (W) 593 2.7 -6.9°
Drops below altitude 10° 09:18:19 10° 185° (S) 1,738 5.0 -6.3°
Sets 09:20:27 0° 182° (S) 2,620 5.9 -6.0°
